Time,TemperatureF,DewpointF,PressureIn,WindDirection,WindDirectionDegrees,WindSpeedMPH,WindSpeedGustMPH,Humidity,HourlyPrecipIn,Conditions,Clouds,dailyrainin,SoftwareType,DateUTC
2013-06-15 00:00:00,58.5,48.3,29.35,ESE,112,0.0,0.0,69,0.00,,,0.00,Weather View 32 v70,2013-06-15 04:00:00,
2013-06-15 00:09:00,58.5,48.3,29.35,ESE,112,0.0,0.0,69,0.00,,,0.00,Weather View 32 v70,2013-06-15 04:09:00,
2013-06-15 00:10:00,57.9,47.4,29.35,ESE,112,0.0,0.0,68,0.00,,,0.00,Weather View 32 v70,2013-06-15 04:10:00,
2013-06-15 00:20:00,57.6,47.1,29.35,ESE,112,0.0,0.0,68,0.00,,,0.00,Weather View 32 v70,2013-06-15 04:20:00,
2013-06-15 00:30:00,57.6,47.1,29.35,ESE,112,0.0,0.0,68,0.00,,,0.00,Weather View 32 v70,2013-06-15 04:30:00,
2013-06-15 00:40:00,57.2,47.1,29.35,ESE,112,0.0,0.0,69,0.00,,,0.00,Weather View 32 v70,2013-06-15 04:40:00,
2013-06-15 00:50:00,57.2,46.7,29.35,ESE,112,0.0,0.0,68,0.00,,,0.00,Weather View 32 v70,2013-06-15 04:50:00,
2013-06-15 01:00:00,57.0,46.5,29.35,ESE,112,0.0,0.0,68,0.00,,,0.00,Weather View 32 v70,2013-06-15 05:00:00,
2013-06-15 01:10:00,56.8,46.0,29.35,ESE,112,0.0,0.0,67,0.00,,,0.00,Weather View 32 v70,2013-06-15 05:10:00,
2013-06-15 01:20:00,56.5,47.2,29.35,ESE,112,0.0,0.0,71,0.00,,,0.00,Weather View 32 v70,2013-06-15 05:20:00,
2013-06-15 01:30:00,56.3,47.0,29.35,ESE,112,0.0,0.0,71,0.00,,,0.00,Weather View 32 v70,2013-06-15 05:30:00,
2013-06-15 01:40:00,56.1,47.6,29.35,ESE,112,0.0,0.0,73,0.00,,,0.00,Weather View 32 v70,2013-06-15 05:40:00,
2013-06-15 01:50:00,55.8,47.2,29.35,ESE,112,0.0,0.0,73,0.00,,,0.00,Weather View 32 v70,2013-06-15 05:50:00,
2013-06-15 02:00:00,55.6,46.3,29.35,ESE,112,0.0,0.0,71,0.00,,,0.00,Weather View 32 v70,2013-06-15 06:00:00,
2013-06-15 02:11:00,55.4,46.1,29.35,ESE,112,0.0,0.0,71,0.00,,,0.00,Weather View 32 v70,2013-06-15 06:11:00,
2013-06-15 02:20:00,55.6,46.7,29.35,ESE,112,0.0,0.0,72,0.00,,,0.00,Weather View 32 v70,2013-06-15 06:20:00,
2013-06-15 02:30:00,55.6,46.7,29.35,ESE,112,0.0,0.0,72,0.00,,,0.00,Weather View 32 v70,2013-06-15 06:30:00,
2013-06-15 02:40:00,55.8,46.8,29.35,ESE,112,0.0,0.0,72,0.00,,,0.00,Weather View 32 v70,2013-06-15 06:40:00,
2013-06-15 02:50:00,56.3,46.6,29.35,ESE,112,0.0,0.0,70,0.00,,,0.00,Weather View 32 v70,2013-06-15 06:50:00,
2013-06-15 03:00:00,56.5,46.4,29.35,ESE,112,0.0,0.0,69,0.00,,,0.00,Weather View 32 v70,2013-06-15 07:00:00,
2013-06-15 03:10:00,56.7,47.0,29.38,ESE,112,0.0,0.0,70,0.00,,,0.00,Weather View 32 v70,2013-06-15 07:10:00,
2013-06-15 03:20:00,56.8,47.1,29.38,ESE,112,0.0,0.0,70,0.00,,,0.00,Weather View 32 v70,2013-06-15 07:20:00,
2013-06-15 03:30:00,56.8,47.1,29.38,ESE,112,0.0,0.0,70,0.00,,,0.00,Weather View 32 v70,2013-06-15 07:30:00,
2013-06-15 03:40:00,57.0,47.3,29.38,ESE,112,0.0,0.0,70,0.00,,,0.00,Weather View 32 v70,2013-06-15 07:40:00,
2013-06-15 03:50:00,57.0,47.3,29.38,ESE,112,0.0,0.0,70,0.00,,,0.00,Weather View 32 v70,2013-06-15 07:50:00,
2013-06-15 04:00:00,57.0,47.3,29.38,ESE,112,0.0,0.0,70,0.00,,,0.00,Weather View 32 v70,2013-06-15 08:00:00,
2013-06-15 04:10:00,56.7,47.3,29.38,ESE,112,0.0,0.0,71,0.00,,,0.00,Weather View 32 v70,2013-06-15 08:10:00,
2013-06-15 04:20:00,56.5,47.5,29.38,ESE,112,0.0,0.0,72,0.00,,,0.00,Weather View 32 v70,2013-06-15 08:20:00,
2013-06-15 04:30:00,55.9,48.5,29.38,ESE,112,0.0,0.0,76,0.00,,,0.00,Weather View 32 v70,2013-06-15 08:30:00,
2013-06-15 04:40:00,55.8,48.6,29.38,ESE,112,0.0,0.0,77,0.00,,,0.00,Weather View 32 v70,2013-06-15 08:40:00,
2013-06-15 04:50:00,55.9,48.8,29.38,ESE,112,0.0,0.0,77,0.00,,,0.00,Weather View 32 v70,2013-06-15 08:50:00,
2013-06-15 05:00:00,55.9,48.5,29.38,ESE,112,0.0,0.0,76,0.00,,,0.00,Weather View 32 v70,2013-06-15 09:00:00,
2013-06-15 05:10:00,55.6,48.5,29.35,ESE,112,0.0,0.0,77,0.00,,,0.00,Weather View 32 v70,2013-06-15 09:10:00,
2013-06-15 05:20:00,55.4,49.0,29.35,ESE,112,0.0,0.0,79,0.00,,,0.00,Weather View 32 v70,2013-06-15 09:20:00,
2013-06-15 05:30:00,55.8,49.7,29.35,ESE,112,0.0,0.0,80,0.00,,,0.00,Weather View 32 v70,2013-06-15 09:30:00,
2013-06-15 05:40:00,55.9,49.2,29.35,South,171,0.0,0.0,78,0.00,,,0.00,Weather View 32 v70,2013-06-15 09:40:00,
2013-06-15 05:50:00,56.3,48.8,29.35,South,173,0.0,0.0,76,0.00,,,0.00,Weather View 32 v70,2013-06-15 09:50:00,
2013-06-15 06:00:00,56.7,48.8,29.38,South,173,0.0,0.0,75,0.00,,,0.00,Weather View 32 v70,2013-06-15 10:00:00,
2013-06-15 06:10:00,57.0,48.8,29.38,South,173,0.0,0.0,74,0.00,,,0.00,Weather View 32 v70,2013-06-15 10:10:00,
2013-06-15 06:20:00,57.2,48.6,29.38,South,173,0.0,0.0,73,0.00,,,0.00,Weather View 32 v70,2013-06-15 10:20:00,
2013-06-15 06:30:00,57.6,48.6,29.38,South,173,0.0,0.0,72,0.00,,,0.00,Weather View 32 v70,2013-06-15 10:30:00,
2013-06-15 06:40:00,57.9,48.6,29.38,South,173,0.0,0.0,71,0.00,,,0.00,Weather View 32 v70,2013-06-15 10:40:00,
2013-06-15 06:50:00,58.1,48.7,29.38,South,173,0.0,0.0,71,0.00,,,0.00,Weather View 32 v70,2013-06-15 10:50:00,
2013-06-15 07:00:00,58.1,48.7,29.41,South,173,0.0,0.0,71,0.00,,,0.00,Weather View 32 v70,2013-06-15 11:00:00,
2013-06-15 07:10:00,58.3,48.9,29.41,South,173,0.0,0.0,71,0.00,,,0.00,Weather View 32 v70,2013-06-15 11:10:00,
2013-06-15 07:16:00,58.3,48.9,29.41,South,173,0.0,0.0,71,0.00,,,0.00,Weather View 32 v70,2013-06-15 11:16:00,
2013-06-15 07:30:00,58.8,49.4,29.41,South,173,0.0,0.0,71,0.00,,,0.00,Weather View 32 v70,2013-06-15 11:30:00,
2013-06-15 07:40:00,59.2,49.4,29.38,South,173,0.0,0.0,70,0.00,,,0.00,Weather View 32 v70,2013-06-15 11:40:00,
2013-06-15 07:50:00,59.7,49.9,29.38,South,177,0.0,0.0,70,0.00,,,0.00,Weather View 32 v70,2013-06-15 11:50:00,
2013-06-15 08:00:00,60.4,49.8,29.38,South,177,0.0,0.0,68,0.00,,,0.00,Weather View 32 v70,2013-06-15 12:00:00,
2013-06-15 08:10:00,61.3,49.4,29.38,South,177,0.0,0.0,65,0.00,,,0.00,Weather View 32 v70,2013-06-15 12:10:00,
2013-06-15 08:16:00,61.3,49.4,29.38,South,177,0.0,0.0,65,0.00,,,0.00,Weather View 32 v70,2013-06-15 12:16:00,
2013-06-15 08:30:00,63.1,49.0,29.38,South,177,0.0,0.0,60,0.00,,,0.00,Weather View 32 v70,2013-06-15 12:30:00,
2013-06-15 08:40:00,63.5,48.4,29.38,South,177,0.0,0.0,58,0.00,,,0.00,Weather View 32 v70,2013-06-15 12:40:00,
2013-06-15 08:50:00,64.2,48.6,29.38,South,177,0.0,0.0,57,0.00,,,0.00,Weather View 32 v70,2013-06-15 12:50:00,
2013-06-15 09:00:00,65.1,48.0,29.38,South,177,0.0,0.0,54,0.00,,,0.00,Weather View 32 v70,2013-06-15 13:00:00,
2013-06-15 09:10:00,65.7,47.0,29.38,South,179,0.0,0.0,51,0.00,,,0.00,Weather View 32 v70,2013-06-15 13:10:00,
2013-06-15 09:17:00,65.7,47.0,29.38,South,179,0.0,0.0,51,0.00,,,0.00,Weather View 32 v70,2013-06-15 13:17:00,
2013-06-15 09:30:00,66.0,47.3,29.38,South,179,0.0,0.0,51,0.00,,,0.00,Weather View 32 v70,2013-06-15 13:30:00,
2013-06-15 09:40:00,66.2,46.4,29.38,South,179,0.0,0.0,49,0.00,,,0.00,Weather View 32 v70,2013-06-15 13:40:00,
2013-06-15 09:50:00,67.1,47.2,29.38,South,179,0.0,0.0,49,0.00,,,0.00,Weather View 32 v70,2013-06-15 13:50:00,
2013-06-15 10:00:00,69.1,47.4,29.38,SSW,196,0.0,0.0,46,0.00,,,0.00,Weather View 32 v70,2013-06-15 14:00:00,
2013-06-15 10:10:00,70.2,45.9,29.38,South,189,2.0,3.0,42,0.00,,,0.00,Weather View 32 v70,2013-06-15 14:10:00,
2013-06-15 10:18:00,70.2,45.9,29.38,South,189,2.0,3.0,42,0.00,,,0.00,Weather View 32 v70,2013-06-15 14:18:00,
2013-06-15 10:30:00,71.8,48.0,29.38,SSW,197,0.0,3.0,43,0.00,,,0.00,Weather View 32 v70,2013-06-15 14:30:00,
2013-06-15 10:40:00,72.9,46.4,29.35,SE,139,0.0,3.0,39,0.00,,,0.00,Weather View 32 v70,2013-06-15 14:40:00,
2013-06-15 10:50:00,73.4,46.2,29.35,SSW,193,0.0,4.0,38,0.00,,,0.00,Weather View 32 v70,2013-06-15 14:50:00,
2013-06-15 11:00:00,73.6,46.3,29.35,South,184,0.0,4.0,38,0.00,,,0.00,Weather View 32 v70,2013-06-15 15:00:00,
2013-06-15 11:10:00,72.9,46.4,29.35,SSW,200,2.0,4.0,39,0.00,,,0.00,Weather View 32 v70,2013-06-15 15:10:00,
2013-06-15 11:19:00,72.9,46.4,29.35,SSW,200,2.0,4.0,39,0.00,,,0.00,Weather View 32 v70,2013-06-15 15:19:00,
2013-06-15 11:30:00,73.9,45.9,29.35,SSW,192,0.0,4.0,37,0.00,,,0.00,Weather View 32 v70,2013-06-15 15:30:00,
2013-06-15 11:40:00,74.7,45.9,29.32,South,190,0.0,4.0,36,0.00,,,0.00,Weather View 32 v70,2013-06-15 15:40:00,
2013-06-15 11:50:00,75.0,44.7,29.32,SSW,201,2.0,4.0,34,0.00,,,0.00,Weather View 32 v70,2013-06-15 15:50:00,
2013-06-15 12:00:00,75.0,44.7,29.32,South,190,3.0,4.0,34,0.00,,,0.00,Weather View 32 v70,2013-06-15 16:00:00,
2013-06-15 12:10:00,75.7,46.8,29.32,WSW,250,0.0,5.0,36,0.00,,,0.00,Weather View 32 v70,2013-06-15 16:10:00,
2013-06-15 12:20:00,76.6,46.1,29.32,WNW,294,0.0,6.0,34,0.00,,,0.00,Weather View 32 v70,2013-06-15 16:20:00,
2013-06-15 12:30:00,75.4,45.7,29.32,SW,214,2.0,6.0,35,0.00,,,0.00,Weather View 32 v70,2013-06-15 16:30:00,
2013-06-15 12:40:00,74.7,47.3,29.32,WSW,237,2.0,6.0,38,0.00,,,0.00,Weather View 32 v70,2013-06-15 16:40:00,
2013-06-15 12:50:00,73.4,47.5,29.32,South,186,0.0,6.0,40,0.00,,,0.00,Weather View 32 v70,2013-06-15 16:50:00,
2013-06-15 13:00:00,72.7,46.9,29.32,SSW,198,0.0,6.0,40,0.00,,,0.00,Weather View 32 v70,2013-06-15 17:00:00,
2013-06-15 13:10:00,72.3,47.2,29.32,SW,225,0.0,6.0,41,0.00,,,0.00,Weather View 32 v70,2013-06-15 17:10:00,
2013-06-15 13:20:00,72.3,48.5,29.32,SW,225,0.0,4.0,43,0.00,,,0.00,Weather View 32 v70,2013-06-15 17:20:00,
2013-06-15 13:30:00,72.5,49.9,29.32,SW,226,0.0,3.0,45,0.00,,,0.00,Weather View 32 v70,2013-06-15 17:30:00,
2013-06-15 13:40:00,72.3,49.1,29.32,SW,225,0.0,3.0,44,0.00,,,0.00,Weather View 32 v70,2013-06-15 17:40:00,
2013-06-15 13:50:00,71.8,48.0,29.32,SSW,202,0.0,3.0,43,0.00,,,0.00,Weather View 32 v70,2013-06-15 17:50:00,
2013-06-15 14:00:00,72.0,48.8,29.32,SSW,202,0.0,3.0,44,0.00,,,0.00,Weather View 32 v70,2013-06-15 18:00:00,
2013-06-15 14:10:00,72.3,49.7,29.32,SW,236,0.0,3.0,45,0.00,,,0.00,Weather View 32 v70,2013-06-15 18:10:00,
2013-06-15 14:20:00,73.0,49.2,29.32,NNW,331,0.0,3.0,43,0.00,,,0.00,Weather View 32 v70,2013-06-15 18:20:00,
2013-06-15 14:30:00,73.6,49.0,29.32,South,175,0.0,3.0,42,0.00,,,0.00,Weather View 32 v70,2013-06-15 18:30:00,
2013-06-15 14:40:00,73.6,48.4,29.32,NNW,331,0.0,4.0,41,0.00,,,0.00,Weather View 32 v70,2013-06-15 18:40:00,
2013-06-15 14:50:00,73.2,48.7,29.32,NNW,327,0.0,6.0,42,0.00,,,0.00,Weather View 32 v70,2013-06-15 18:50:00,
2013-06-15 15:00:00,72.3,47.9,29.32,South,180,0.0,6.0,42,0.00,,,0.00,Weather View 32 v70,2013-06-15 19:00:00,
2013-06-15 15:10:00,72.7,50.6,29.32,South,180,0.0,6.0,46,0.00,,,0.00,Weather View 32 v70,2013-06-15 19:10:00,
2013-06-15 15:20:00,73.0,50.4,29.32,WNW,294,0.0,6.0,45,0.00,,,0.00,Weather View 32 v70,2013-06-15 19:20:00,
2013-06-15 15:30:00,72.9,49.6,29.32,WNW,294,0.0,6.0,44,0.00,,,0.00,Weather View 32 v70,2013-06-15 19:30:00,
2013-06-15 15:40:00,73.0,49.8,29.32,WNW,294,0.0,6.0,44,0.00,,,0.00,Weather View 32 v70,2013-06-15 19:40:00,
2013-06-15 15:50:00,73.6,49.6,29.32,NW,309,0.0,6.0,43,0.00,,,0.00,Weather View 32 v70,2013-06-15 19:50:00,
2013-06-15 16:00:00,72.9,49.6,29.32,NW,309,0.0,0.0,44,0.00,,,0.00,Weather View 32 v70,2013-06-15 20:00:00,
2013-06-15 16:10:00,72.3,50.9,29.29,NW,309,0.0,0.0,47,0.00,,,0.00,Weather View 32 v70,2013-06-15 20:10:00,
2013-06-15 16:20:00,71.8,52.6,29.29,NW,309,0.0,0.0,51,0.00,,,0.00,Weather View 32 v70,2013-06-15 20:20:00,
2013-06-15 16:30:00,71.6,53.0,29.29,NW,309,0.0,0.0,52,0.00,,,0.00,Weather View 32 v70,2013-06-15 20:30:00,
2013-06-15 16:40:00,71.8,52.6,29.29,NW,309,0.0,0.0,51,0.00,,,0.00,Weather View 32 v70,2013-06-15 20:40:00,
2013-06-15 16:50:00,72.1,50.7,29.29,SSW,195,0.0,0.0,47,0.00,,,0.00,Weather View 32 v70,2013-06-15 20:50:00,
2013-06-15 17:00:00,72.9,50.8,29.29,South,189,0.0,0.0,46,0.00,,,0.00,Weather View 32 v70,2013-06-15 21:00:00,
2013-06-15 17:10:00,73.4,51.3,29.29,WNW,286,0.0,4.0,46,0.00,,,0.00,Weather View 32 v70,2013-06-15 21:10:00,
2013-06-15 17:20:00,73.4,51.3,29.29,SW,222,0.0,4.0,46,0.00,,,0.00,Weather View 32 v70,2013-06-15 21:20:00,
2013-06-15 17:25:00,73.4,51.3,29.29,SW,222,0.0,4.0,46,0.00,,,0.00,Weather View 32 v70,2013-06-15 21:25:00,
2013-06-15 17:40:00,73.9,51.8,29.29,SSW,204,0.0,4.0,46,0.00,,,0.00,Weather View 32 v70,2013-06-15 21:40:00,
2013-06-15 17:50:00,72.9,50.8,29.29,SSW,200,0.0,4.0,46,0.00,,,0.00,Weather View 32 v70,2013-06-15 21:50:00,
2013-06-15 18:00:00,72.1,51.3,29.29,West,259,0.0,4.0,48,0.00,,,0.00,Weather View 32 v70,2013-06-15 22:00:00,
2013-06-15 18:10:00,72.3,51.5,29.29,South,179,3.0,4.0,48,0.00,,,0.00,Weather View 32 v70,2013-06-15 22:10:00,
2013-06-15 18:20:00,72.3,50.3,29.29,SSW,204,4.0,5.0,46,0.00,,,0.00,Weather View 32 v70,2013-06-15 22:20:00,
2013-06-15 18:26:00,72.3,50.3,29.29,SSW,204,4.0,5.0,46,0.00,,,0.00,Weather View 32 v70,2013-06-15 22:26:00,
2013-06-15 18:40:00,70.9,51.3,29.26,SSW,196,3.0,6.0,50,0.00,,,0.00,Weather View 32 v70,2013-06-15 22:40:00,
2013-06-15 18:50:00,70.5,50.9,29.26,SSW,209,3.0,6.0,50,0.00,,,0.00,Weather View 32 v70,2013-06-15 22:50:00,
2013-06-15 19:00:00,70.5,49.8,29.26,SSW,200,2.0,6.0,48,0.00,,,0.00,Weather View 32 v70,2013-06-15 23:00:00,
2013-06-15 19:10:00,70.0,48.2,29.26,SSW,201,3.0,6.0,46,0.00,,,0.00,Weather View 32 v70,2013-06-15 23:10:00,
2013-06-15 19:20:00,69.6,48.4,29.26,ESE,109,2.0,6.0,47,0.00,,,0.00,Weather View 32 v70,2013-06-15 23:20:00,
2013-06-15 19:26:00,69.6,48.4,29.26,ESE,109,2.0,6.0,47,0.00,,,0.00,Weather View 32 v70,2013-06-15 23:26:00,
2013-06-15 19:40:00,69.3,48.7,29.26,WSW,245,3.0,5.0,48,0.00,,,0.00,Weather View 32 v70,2013-06-15 23:40:00,
2013-06-15 19:50:00,68.9,48.3,29.26,West,264,2.0,4.0,48,0.00,,,0.00,Weather View 32 v70,2013-06-15 23:50:00,
2013-06-15 20:00:00,68.9,49.4,29.26,SSW,199,0.0,4.0,50,0.00,,,0.00,Weather View 32 v70,2013-06-16 00:00:00,
2013-06-15 20:10:00,68.9,49.4,29.26,WSW,238,2.0,4.0,50,0.00,,,0.00,Weather View 32 v70,2013-06-16 00:10:00,
2013-06-15 20:20:00,68.7,50.3,29.26,SSW,204,0.0,4.0,52,0.00,,,0.00,Weather View 32 v70,2013-06-16 00:20:00,
2013-06-15 20:27:00,68.7,50.3,29.26,SSW,204,0.0,4.0,52,0.00,,,0.00,Weather View 32 v70,2013-06-16 00:27:00,
2013-06-15 20:40:00,68.0,51.2,29.26,SSW,205,0.0,4.0,55,0.00,,,0.00,Weather View 32 v70,2013-06-16 00:40:00,
2013-06-15 20:50:00,67.8,52.0,29.26,SSW,205,0.0,4.0,57,0.00,,,0.00,Weather View 32 v70,2013-06-16 00:50:00,
2013-06-15 21:00:00,67.6,51.8,29.26,SSW,205,0.0,4.0,57,0.00,,,0.00,Weather View 32 v70,2013-06-16 01:00:00,
2013-06-15 21:10:00,67.3,52.0,29.26,SSW,205,0.0,4.0,58,0.00,,,0.00,Weather View 32 v70,2013-06-16 01:10:00,
2013-06-15 21:20:00,66.7,52.4,29.26,SSW,205,0.0,3.0,60,0.00,,,0.00,Weather View 32 v70,2013-06-16 01:20:00,
2013-06-15 21:28:00,66.7,52.4,29.26,SSW,205,0.0,3.0,60,0.00,,,0.00,Weather View 32 v70,2013-06-16 01:28:00,
2013-06-15 21:40:00,65.5,54.2,29.23,SSW,205,0.0,0.0,67,0.00,,,0.00,Weather View 32 v70,2013-06-16 01:40:00,
2013-06-15 21:50:00,65.1,54.3,29.23,SSW,205,0.0,0.0,68,0.00,,,0.00,Weather View 32 v70,2013-06-16 01:50:00,
2013-06-15 22:00:00,64.9,54.1,29.23,SSW,205,0.0,0.0,68,0.00,,,0.00,Weather View 32 v70,2013-06-16 02:00:00,
2013-06-15 22:10:00,64.8,54.7,29.23,SSW,205,0.0,0.0,70,0.00,,,0.00,Weather View 32 v70,2013-06-16 02:10:00,
2013-06-15 22:20:00,64.8,54.7,29.23,SSW,205,0.0,0.0,70,0.00,,,0.00,Weather View 32 v70,2013-06-16 02:20:00,
2013-06-15 22:28:00,64.8,54.7,29.23,SSW,205,0.0,0.0,70,0.00,,,0.00,Weather View 32 v70,2013-06-16 02:28:00,
2013-06-15 22:40:00,64.6,54.5,29.23,SSW,205,0.0,0.0,70,0.00,,,0.00,Weather View 32 v70,2013-06-16 02:40:00,
2013-06-15 22:50:00,64.6,54.5,29.23,SSW,205,0.0,0.0,70,0.00,,,0.00,Weather View 32 v70,2013-06-16 02:50:00,
2013-06-15 23:00:00,64.6,54.5,29.23,SSW,205,0.0,0.0,70,0.00,,,0.00,Weather View 32 v70,2013-06-16 03:00:00,
2013-06-15 23:10:00,64.4,54.4,29.23,SSW,205,0.0,0.0,70,0.00,,,0.00,Weather View 32 v70,2013-06-16 03:10:00,
2013-06-15 23:20:00,64.2,54.6,29.23,SSW,205,0.0,0.0,71,0.00,,,0.00,Weather View 32 v70,2013-06-16 03:20:00,
2013-06-15 23:29:00,64.2,54.6,29.23,SSW,205,0.0,0.0,71,0.00,,,0.00,Weather View 32 v70,2013-06-16 03:29:00,
2013-06-15 23:40:00,64.0,54.4,29.23,SSW,205,0.0,0.0,71,0.00,,,0.00,Weather View 32 v70,2013-06-16 03:40:00,
2013-06-15 23:50:00,64.0,54.4,29.23,SSW,205,3.0,3.0,71,0.00,,,0.00,Weather View 32 v70,2013-06-16 03:50:00,